"Pseudo-MPEC" for P11C4qL

Created 2022 Nov 25 15:22:13 UT using Find_Orb

Click here for an explanation of pseudo-MPECs

 
 Astrometry: 
     P11C4qL  C2022 11 12xCLG?s)'0#FXr?I+H(NX`,l?cooK+T)9P2S3:=6`PcZyn([vaB\-F51
     P11C4qL  C2022 11 12aEVJ-M$j@_@Sl.m0x-:ag9Astrometry/pO+WqgdXf@h7Moo=6.7F51
     P11C4qL  C2022 11 12C!y6exC%91rI[G.lP0PPs-#BWt2eeUfeE+cC0V.)%i*h[#kS4uvRF51
     P11C4qL  C2022 11 14ISL57k_jj?3UvA8U0BCEE;jS*eY=\YCrw5=redacted;\k-M1A(aF52
     P11C4qL  C2022 11 14tpMnLb/=;9\Nclick?TeRQ7PfTfX;mhereC\O^SITfH,(2#wK`%EF52
     P11C4qL  C2022 11 14njwE''25HDQ;ggk%@:YZ\-bn09sJ?/pdkQPytW;;y`@?TSt55'Q)F52
     P11C4qL  C2022 11 14kk#0u4sExdw(kPVEq!+ku:Eo)4PZrA%u7iJLcp$MG-rQcOw5*\%vF52
     P11C4qL  C2022 11 17%N%nX:f?ak/e=L5BS\)L4FUe[_!?xuGWiqUkpqT\iqeY.n_vn:aPF51
     P11C4qL  C2022 11 17TbFM:AfortL1w@Zh7,vsuD`6R.u(ji,D,,qNE9F$YFJ2CCaEBG[tF51
     P11C4qL* C2022 11 24/1#f!FLy,YJaaogok3P8^b5[$ZW%p,5'cU\c'5p`_1G.x!XDi.6'F51
     P11C4qL  C2022 11 24JKN_tT/C6ixLR%af33cfiAdXO_y%!Nu\N!%D#kw(,SH-g6p-%kq]F51
     P11C4qL  C2022 11 24@KBsPw!ns]BNass,JV8#$yD:I+s:V4MR.WPcLI!HQ=cJ7oNGb,KaF51
     P11C4qL |C2022 11 25*@169K8p:fwReIUfexplanationL-^51O_`vGFG.PA?f[E%+_E-;807
     P11C4qL |C2022 11 25B`FoGL+ahZF(0mN1V$SOE4tJ?3INEf/E6Vq8;YZOYb_'6p]oI2:7807
     P11C4qL |C2022 11 25a0NA7WfWffmv]`7p@fP]%WsunByZ66u.!JO8[poG\=ws#4jwT@ZY807
     P11C4qL 3C2022 11 25Q..y*-YAxUOyYYk:O`;eW8^4N24HFmS.!,9c@ZaOc:.B+KE=6#/OT14
     P11C4qL 3C2022 11 25ki#W#$J32%@Kh`_)5ICwE(yqNp-+%6vHnTKt2uax'$CAcLVfJ-2,T14
     P11C4qL 3C2022 11 25,]ZVD?5[p]OJ.I6]048l8[3VaDB1Q.8kRn6L^qBAF*I6A3JYY=:mT14

Station data:
(807) Cerro Tololo Observatory, La Serena  (S30.169133 W70.805900)  Chile.
   Observer R. Holmes. 0.61-m f/6.5 astrograph + CCD.
(F51) Pan-STARRS 1, Haleakala  (N20.707234 W156.255910)  US/Hawaii.
   Observers J. Bulger, T. Lowe, A. Schultz, M. Willman. Measurers K.
   Chambers, S. Chastel, T. de Boer, L. Denneau, J. Fairlamb, H. Flewelling,
   M. Huber, C.-C. Lin, E. Magnier, Y. Ramanjooloo, R. Wainscoat, R. Weryk.
   1.8-m Ritchey-Chrétien + CCD.
(F52) Pan-STARRS 2, Haleakala  (N20.707382 W156.255910)  US/Hawaii.
   Observers J. Bulger, T. Dukes, T. Lowe, A. Schultz, M. Willman. Measurers
   K. Chambers, S. Chastel, T. de Boer, L. Denneau, J. Fairlamb, H.
   Flewelling, M. Huber, C.-C. Lin, E. Magnier, Y. Ramanjooloo, R. Wainscoat,
   R. Weryk. 1.8-m Ritchey-Chrétien + CCD.
(T14) Mauna Kea-UH/Tholen NEO Follow-Up (CFHT)  (N19.825252 W155.468876)
   US/Hawaii. 3.6-m Canada-France-Hawaii Telescope.

Orbital elements:  P11C4qL
   Perihelion 2022 Sep 6.95987 +/- 0.0228 TT = 23:02:13 (JD 2459829.45987)
Epoch 2022 Nov 25.0 TT = JDT 2459908.5   Earth MOID: 0.1714   Ve: 0.0923
M  34.94651547 +/- 0.10             Me: 0.0499                AutoNEOCP
n   0.44213638 +/- 0.00116          Peri.  188.57560 +/- 0.06
a   1.70646957 +/- 0.00299          Node    97.35265 +/- 0.053
e   0.7139477 +/- 0.00059           Incl.   10.62487 +/- 0.014
P   2.23/814.21d           H 21.9   G  0.15   U  8.2
q 0.48813938 +/- 0.000155    Q 2.92479975 +/- 0.00613     (J2000 ecliptic)
From 18 observations 2022 Nov. 12-25; mean residual 0".22
Residuals in arcseconds: 
221112 F51  .07-  .22+    221114 F52  .47-  .32+    221125 807  .02+  .30+    
221112 F51  .12-  .22+    221117 F51  .16-  .11+    221125 807  .12+  .06+    
221112 F51  .08-  .29-    221117 F51  .01-  .06+    221125 807  .07+  .09+    
221114 F52  .50+  .45-    221124 F51  .09-  .01+    221125 T14  .01+  .04-    
221114 F52  .53+  .37-    221124 F51  .30-  .22+    221125 T14  .01-  .04+    
221114 F52  .01+  .11+    221124 F51  .07-  .07-    221125 T14  .00   .02-    

Ephemerides (geocentric):
Date (UTC) HH   RA             Dec           delta  r     elong  mag " sig PA
---- --------  ------------   ------------  ------ ------ -----  --- --------
2022 11 25 15  01 53 25.549   -12 03 24.72  .50200 1.3844 134.1 22.5 .038  56
2022 11 25 16  01 53 25.390   -12 01 35.05  .50263 1.3849 134.1 22.5 .041  57
2022 11 25 17  01 53 25.235   -11 59 45.59  .50326 1.3854 134.1 22.5 .045  58
2022 11 25 18  01 53 25.086   -11 57 56.32  .50388 1.3858 134.1 22.5 .049  59
2022 11 25 19  01 53 24.943   -11 56 07.26  .50451 1.3863 134.1 22.5 .053  60
2022 11 25 20  01 53 24.804   -11 54 18.40  .50514 1.3868 134.1 22.5 .057  60
2022 11 25 21  01 53 24.671   -11 52 29.74  .50577 1.3872 134.0 22.5 .061  61
2022 11 25 22  01 53 24.542   -11 50 41.28  .50640 1.3877 134.0 22.5 .065  61
2022 11 25 23  01 53 24.419   -11 48 53.02  .50703 1.3882 134.0 22.5 .069  61
2022 11 26 00  01 53 24.302   -11 47 04.96  .50766 1.3886 134.0 22.5 .073  62
2022 11 26 01  01 53 24.189   -11 45 17.09  .50829 1.3891 134.0 22.5 .077  62
2022 11 26 02  01 53 24.081   -11 43 29.42  .50892 1.3896 134.0 22.5 .081  62
2022 11 26 03  01 53 23.979   -11 41 41.95  .50955 1.3900 134.0 22.5 .085  63
2022 11 26 04  01 53 23.881   -11 39 54.67  .51018 1.3905 133.9 22.5 .089  63
2022 11 26 05  01 53 23.789   -11 38 07.58  .51081 1.3909 133.9 22.5 .093  63
2022 11 26 06  01 53 23.702   -11 36 20.69  .51144 1.3914 133.9 22.5 .097  63
2022 11 26 07  01 53 23.620   -11 34 34.00  .51207 1.3919 133.9 22.5 .101  63
2022 11 26 08  01 53 23.543   -11 32 47.50  .51270 1.3923 133.9 22.5 .106  63
2022 11 26 09  01 53 23.471   -11 31 01.19  .51334 1.3928 133.9 22.5 .110  64
2022 11 26 10  01 53 23.404   -11 29 15.07  .51397 1.3933 133.8 22.5 .114  64
2022 11 26 11  01 53 23.342   -11 27 29.14  .51460 1.3937 133.8 22.5 .118  64
2022 11 26 12  01 53 23.285   -11 25 43.41  .51523 1.3942 133.8 22.5 .123  64
2022 11 26 13  01 53 23.233   -11 23 57.86  .51587 1.3947 133.8 22.5 .127  64
2022 11 26 14  01 53 23.186   -11 22 12.51  .51650 1.3951 133.8 22.5 .131  64
2022 11 26 15  01 53 23.144   -11 20 27.34  .51713 1.3956 133.8 22.5 .136  64
2022 11 26 16  01 53 23.107   -11 18 42.36  .51777 1.3960 133.7 22.5 .140  64
2022 11 26 17  01 53 23.075   -11 16 57.57  .51840 1.3965 133.7 22.6 .145  64
2022 11 26 18  01 53 23.048   -11 15 12.97  .51904 1.3970 133.7 22.6 .149  64
2022 11 26 19  01 53 23.026   -11 13 28.55  .51967 1.3974 133.7 22.6 .154  64
2022 11 26 20  01 53 23.008   -11 11 44.32  .52031 1.3979 133.7 22.6 .158  64
2022 11 26 21  01 53 22.996   -11 10 00.28  .52094 1.3984 133.7 22.6 .163  65
2022 11 26 22  01 53 22.989   -11 08 16.42  .52158 1.3988 133.7 22.6 .167  65
2022 11 26 23  01 53 22.986   -11 06 32.75  .52221 1.3993 133.6 22.6 .172  65
2022 11 27 00  01 53 22.988   -11 04 49.25  .52285 1.3997 133.6 22.6 .177  65
2022 11 27 01  01 53 22.995   -11 03 05.95  .52349 1.4002 133.6 22.6 .181  65
2022 11 27 02  01 53 23.007   -11 01 22.82  .52412 1.4007 133.6 22.6 .186  65
2022 11 27 03  01 53 23.024   -10 59 39.88  .52476 1.4011 133.6 22.6 .191  65
2022 11 27 04  01 53 23.046   -10 57 57.12  .52540 1.4016 133.6 22.6 .195  65
2022 11 27 05  01 53 23.073   -10 56 14.54  .52603 1.4021 133.5 22.6 .200  65
2022 11 27 06  01 53 23.104   -10 54 32.14  .52667 1.4025 133.5 22.6 .205  65
2022 11 27 07  01 53 23.140   -10 52 49.92  .52731 1.4030 133.5 22.6 .210  65
2022 11 27 08  01 53 23.181   -10 51 07.88  .52795 1.4034 133.5 22.6 .214  65
2022 11 27 09  01 53 23.227   -10 49 26.03  .52859 1.4039 133.5 22.6 .219  65
2022 11 27 10  01 53 23.277   -10 47 44.34  .52923 1.4044 133.4 22.6 .224  65
2022 11 27 11  01 53 23.332   -10 46 02.84  .52986 1.4048 133.4 22.6 .229  65
2022 11 27 12  01 53 23.392   -10 44 21.51  .53050 1.4053 133.4 22.6 .234  65
2022 11 27 13  01 53 23.457   -10 42 40.36  .53114 1.4057 133.4 22.6 .239  65
2022 11 27 14  01 53 23.526   -10 40 59.39  .53178 1.4062 133.4 22.6 .244  65